Regional Weather Roundup
Issued by NWS San Diego, CA

Home | Current Version | Previous Version | Text Only | Print | Product List | Glossary On
Versions: 1 2 3 4 5 6 7 8 9 10 11 12 13 14 15 16 17 18 19 20 21 22 23 24 25 26 27 28 29 30 31 32 33 34 35 36 37 38 39 40 41 42 43 44 45 46 47 48 49 50
000
ASUS46 KSGX 250211
RWRSGX
SAN DIEGO HOURLY WEATHER ROUNDUP
NATIONAL WEATHER SERVICE SAN DIEGO CA
700 PM PDT WED MAY 24 2017

NOTE: "FAIR" INDICATES FEW OR NO CLOUDS BELOW 12,000 FEET WITH NO
SIGNIFICANT WEATHER AND/OR OBSTRUCTIONS TO VISIBILITY.

CAZ042-043-060-061-PZZ750-775-250300-

GREATER SAN DIEGO AREA

CITY           SKY/WX    TMP DP  RH WIND       PRES   REMARKS
SAN DIEGO AP   MOCLDY    64  54  69 W10       29.85S
NATIONAL CITY    N/A     64  56  76 SW6       29.84S
CHULA VISTA      N/A     62  56  81 W1        29.77R
IMPERIAL BEACH MOCLDY    61  52  72 W7        29.86R
BROWN FIELD    MOCLDY    60  54  80 W9        29.84R
MIRAMAR MCAS   MOCLDY    64  52  64 VRB3      29.83S
MONTGOMERY FLD MOCLDY    61  52  72 S8        29.84R

$$

NORTH SAN DIEGO COUNTY

CITY           SKY/WX    TMP DP  RH WIND       PRES   REMARKS
CAMP PENDLETON PTCLDY    62  55  77 VRB3      29.82S
OCEANSIDE AP   CLOUDY    62  54  74 SW8       29.82S
OCEANSIDE HBR    N/A     60  55  82 SW2       29.85S
VISTA            N/A     62  55  77 SW1       29.80S
CARLSBAD       CLOUDY    60  54  80 SW6       29.82S
DEL MAR          N/A     61  55  81 CALM      29.85S
LA JOLLA SCRIP   N/A     59  55  85 SW1       29.83S
FALLBROOK        N/A     62  57  83 S2          N/A
ESCONDIDO        N/A     64  53  67 CALM      29.83R
SAN MARCOS       N/A     59  53  80 CALM      29.84S
POWAY            N/A     64  54  70 CALM      29.84R

$$

EAST SAN DIEGO COUNTY

CITY           SKY/WX    TMP DP  RH WIND       PRES   REMARKS
RAMONA         CLEAR     63  54  72 W10       29.83R
SANTEE LAKES     N/A     64  55  73 SW3       29.81R
LA MESA          N/A     63  54  73 W6        29.76R
JAMUL            N/A     62  55  77 CALM      29.81R
DESCANSO N       N/A     67  52  58 W2        29.69F
MT. LAGUNA OBS   N/A     60  20  21 W8        29.56S
CAMPO            N/A     70  49  47 SW13      29.80F

$$

ORANGE COUNTY AND THE LOS ANGELES BASIN

CITY           SKY/WX    TMP DP  RH WIND       PRES   REMARKS
JOHN WAYNE AP  PTCLDY    63  54  72 SW8       29.81S
LAGUNA BEACH     N/A     62  57  82 SW2       29.77S
LAKE FOREST FR   N/A     66  53  62 W5        29.70R
HUNTINGTON BCH   N/A     61  56  83 W12       29.82S
LOS ALAMITOS   CLEAR     64  54  69 SW10      29.80S
FULLERTON      CLEAR     66  54  65 S7        29.79S
LONG BEACH     CLEAR     63  50  62 W13       29.80S
L.A. AP        MOCLDY    60  54  80 W10       29.81F
L.A. DOWNTOWN  CLEAR     64  55  72 W8        29.80S

$$

THE INLAND EMPIRE

CITY           SKY/WX    TMP DP  RH WIND       PRES   REMARKS
CORONA         CLEAR     68  56  65 W15G25    29.76S
CHINO          PTCLDY    69  55  60 W14       29.79R
ONTARIO        PTCLDY    71  50  47 SW17      29.77F
RIVERSIDE AP   CLEAR     72  55  55 W12       29.77R
MORENO VALLEY    N/A     77  46  33 W6        27.90F
MARCH ARB      CLEAR     74  47  37 NW8       29.78R
HORSETHIEF CYN   N/A     75  50  40 NE8       29.74R
PERRIS           N/A     79  50  36 W3        29.77S
HEMET EAST       N/A     80  34  18 W5        29.79S
FRENCH VALLEY  FAIR      66  48  52 S12       29.80R
TEMECULA         N/A     67  52  58 SW8       29.81S

$$

SAN BERNARDINO AND RIVERSIDE COUNTY MOUNTAINS

CITY           SKY/WX    TMP DP  RH WIND       PRES   REMARKS
BIG BEAR AP    CLEAR     61   5  11 SW9G18    30.00F
PINE COVE        N/A     61  38  41 W1        29.66S

$$

SOUTHERN DESERT INCLUDING THE COACHELLA VALLEY

CITY           SKY/WX    TMP DP  RH WIND       PRES   REMARKS
PALM SPRINGS   CLEAR     96  34  11 W21G35    29.56F
PALM DESERT      N/A     97  41  14 CALM        N/A
THERMAL        PTCLDY    96  38  13 N20G28    29.51R
BLYTHE         PTCLDY   101  24   6 SW17G28   29.52S
IMPERIAL AP    LGT RAIN  93  31  11 W23G33    29.54S
EL CENTRO NAS  MOCLDY    93  20   7 W29G37    29.57S
YUMA AZ        PTCLDY    99  31   9 W20G26    29.55R
MEXICALI       PTCLDY    97  23   7 W21       29.55S

$$

UPPER DESERT

CITY           SKY/WX    TMP DP  RH WIND       PRES   REMARKS
VICTORVILLE AP CLEAR     81  23  12 S17G26    29.75S
HESPERIA         N/A     74  37  26 W16       29.73S
PALMDALE       CLEAR     80  23  12 SW23G33   29.76R
LANCASTER      CLEAR     79  33  19 SW18G32   29.75S
EDWARDS AFB    PTCLDY    82  27  13 SW24G32   29.69S
DAGGETT        PTCLDY    91  18   7 SW25G37   29.63S
29 PALMS N     PTCLDY    90  19   7 SW24G30   29.68S
NEEDLES        PTCLDY   107   9   3 SW17G24   29.48F HX  98

$$

REGIONAL REPORTS

CITY           SKY/WX    TMP DP  RH WIND       PRES   REMARKS
SANTA BARBARA  SUNNY     59  53  80 W9        29.80F
SANDBERG       MOSUNNY   68  33  27 S9G23     29.91F
LAS VEGAS NV   PTCLDY    97   8   4 SW20G29   29.52F
PHOENIX AZ     MOCLDY   101  25   7 SW17      29.55F
TIJUANA        MOCLDY    61  50  67 W8        29.86S
ENSENADA NW      N/A     61  32  33 W6        29.82R

$$

OFFSHORE ISLANDS

CITY           SKY/WX    TMP DP  RH WIND       PRES   REMARKS
CATALINA ARPT  FOG       53  51  93 W18       29.83S VSB 1

$$

MARINE AND OFFSHORE BUOY REPORTS

STATION/POSITION SKY/WX   TEMP    WIND        PRES    VSBY  SWELL
                          AIR SEA DIR/SP/G                  HT/PER/DIR
                          (F)     (DEG/KT/KT) (MB)    (MI)  (FT/S/D)
TANNER BANKS               59 59  300/ 16/ 17 1010.3F         3/260/14
S CLEMENTE BASIN           58 62  280/ 14/ 17 1010.1F         3/230/15
SAN NICOLAS IS.               58                N/A           5/220/14
SO. S. ROSA ISLA           56 56  280/  8/  8 1009.9F         5/270/13
W. S. BARBARA CH           55 56  300/ 10/ 12 1009.5F         3/270/13
M. S. BARBARA CH                  270/ 12/ 14 1009.8F
S. MONICA BASIN            58 63  280/ 12/ 14 1009.3F         2/230/14
S PEDRO CHANNEL               63                N/A           2/190/15
CMP PENDLETON NS              63                N/A           2/190/14
OCEANSIDE OFFSHR              64                N/A           2/180/14
TORREY PINES OTR              65                N/A           2/230/14
SAN DIEGO BAY                 69              1010.6
POINT LOMA SOUTH              65                N/A           3/210/13

$$




USA.gov is the U.S. government's official web portal to all federal, state and local government web resources and services.